sat.trackr.live / text

‹ back to catalog

STARLINK-6367

NORAD 57376 · 2023-099BA

PAYLOAD ACTIVE UNKNOWN

§ Identity

Operator
Country
US
Launch date
2023-07-16
Launch site
AFETR
Launch vehicle
Mass (kg)
RCS (m²)

Purposes: comms

External: N2YO · Heavens-Above · Gunter

§ Orbital elements

Epoch: 2026-09-20T05:38:58.294752Z

Period
94.27 min
Inclination
42.9971°
Eccentricity
0.0001135
Mean motion
15.27584379 rev/d
Perigee alt
482.3 km
Apogee alt
483.8 km
Semi-major
6,861.2 km
B*
3.3961e-4
RAAN
219.4826°
Arg perigee
243.0506°
Mean anomaly
117.0230°
Rev number
17,599

§ Raw data

STARLINK-63671 57376U 23099BA  26263.23539693  .00009096  00000+0  33961-3 0  99982 57376  42.9971 219.4826 0001135 243.0506 117.0230 15.27584379175990

JSON: /api/v1/satellites/57376 · /tle

For live sub-satellite position, see the globe view (requires WebGL).

§ Visibility from observer

Set your observer location to see the next 7 days of passes ≥ 10°. The values pass through the URL so the page stays shareable.

No JS? Fill the form by hand. The geolocation button needs JavaScript.